Back to catalog

COSMOS 2251 DEB

AliveLEO
NORAD 34678·DEBRIS·🇷🇺 Russia

Launched Jun 16, 1993 from Plesetsk Cosmodrome

Loading…

Next Passes (next 24 hours)

TLE

FreshSource: Space-Track

Epoch: Sep 14, 2026, 15:43 UTC

1 34678U 93036XY  26257.65545263  .00000006  00000-0  12178-4 0  9996
2 34678  74.0359 224.0568 0025978 210.4431 325.9221 14.30101122913238

Track COSMOS 2251 DEB in real time with AllMySat

Download on the App Store